Weather History for KAGS - December, 2012

Change the Weather History Date:

Friday, December 7, 2012

  Actual Average Record
Temperature  
Mean Temperature 54 °F 49 °F  
Max Temperature 63 °F 62 °F 82 °F (1998)
Min Temperature 44 °F 36 °F 15 °F (1937)
Degree Days  
Heating Degree Days 11 16  
Month to date heating degree days 45 108  
Since 1 July heating degree days 545 530  
Cooling Degree Days 0 0  
Month to date cooling degree days 0 0  
Year to date cooling degree days 2163 2086  
Growing Degree Days 4 (Base 50)    
Moisture  
Dew Point 45 °F    
Average Humidity 80    
Maximum Humidity 100    
Minimum Humidity 60    
Precipitation  
Precipitation 0.02 in 0.10 in 1.51 in (1936)
Month to date precipitation 0.02 0.73  
Year to date precipitation 31.43 40.91  
Sea Level Pressure  
Sea Level Pressure 30.08 in    
Wind  
Wind Speed 3 mph (NNE)    
Max Wind Speed 12 mph    
Max Gust Speed 15 mph    
Visibility 9 miles    
Events Rain    
T = Trace of Precipitation, MM = Missing Value Source: NWS Daily Summary

Daily Weather History Graph

Daily Weather History Graph

Search for Another Location

Airport or City:

Trip Planner

Search our weather history database for the weather conditions in past years. The results will help you decide how hot, cold, wet, or windy it might be!

Date:

Astronomy

Dec. 07, 2012 Rise Set
Actual Time 7:18 AM EST 5:20 PM EST
Civil Twilight 6:51 AM EST 5:47 PM EST
Nautical Twilight 6:20 AM EST 6:18 PM EST
Astronomical Twilight 5:50 AM EST 6:48 PM EST
Moon 12:53 AM EST (12/7) 1:01 PM EST (12/7)
Length of Visible Light 10h 55m
Length of Day
10h 01m
Last Quarter, 39% of the Moon is Illuminated
Dec 7
Last Quarter
Dec 13
New
Dec 20
First Quarter
Dec 28
Full
Jan 4
Last Quarter

Hourly Weather History & Observations

Time (EST) Temp. Dew Point Humidity Pressure Visibility Wind Dir Wind Speed Gust Speed Precip Events Conditions
12:53 AM 51.1 °F 39.9 °F 66% 30.14 in 10.0 mi NNE 9.2 mph - N/A   Overcast
1:53 AM 50.0 °F 39.9 °F 68% 30.13 in 10.0 mi NNE 5.8 mph - N/A   Overcast
2:53 AM 50.0 °F 39.9 °F 68% 30.14 in 10.0 mi NNE 4.6 mph - N/A   Overcast
3:53 AM 50.0 °F 39.0 °F 66% 30.11 in 10.0 mi NNE 6.9 mph - N/A   Overcast
4:08 AM 50.0 °F 39.2 °F 66% 30.11 in 10.0 mi NNE 6.9 mph - N/A   Overcast
4:30 AM 50.0 °F 39.2 °F 66% 30.11 in 10.0 mi NE 6.9 mph - N/A   Overcast
4:53 AM 50.0 °F 39.9 °F 68% 30.11 in 10.0 mi NNE 5.8 mph - N/A   Overcast
5:53 AM 50.0 °F 41.0 °F 71% 30.11 in 10.0 mi NE 6.9 mph - N/A   Overcast
6:53 AM 50.0 °F 42.8 °F 76% 30.13 in 10.0 mi NNE 6.9 mph - N/A   Overcast
7:53 AM 48.9 °F 43.0 °F 80% 30.14 in 3.0 mi NNE 4.6 mph - 0.02 in Rain Rain
8:53 AM 50.0 °F 43.0 °F 77% 30.12 in 10.0 mi North 4.6 mph - 0.00 in   Overcast
9:12 AM 50.0 °F 44.6 °F 82% 30.13 in 10.0 mi North 8.1 mph - N/A   Overcast
9:53 AM 51.1 °F 43.0 °F 74% 30.13 in 10.0 mi North 5.8 mph - N/A   Overcast
10:53 AM 53.1 °F 44.1 °F 71% 30.12 in 10.0 mi NNE 4.6 mph - N/A   Overcast
11:40 AM 53.6 °F 44.6 °F 72% 30.10 in 10.0 mi North 5.8 mph - N/A   Overcast
11:53 AM 55.0 °F 45.0 °F 69% 30.09 in 10.0 mi North 4.6 mph - N/A   Overcast
12:53 PM 57.0 °F 46.0 °F 67% 30.06 in 10.0 mi Variable 4.6 mph - N/A   Overcast
1:53 PM 59.0 °F 46.9 °F 64% 30.03 in 10.0 mi Calm Calm - N/A   Overcast
2:53 PM 63.0 °F 48.0 °F 58% 30.01 in 10.0 mi Calm Calm - N/A   Overcast
3:53 PM 61.0 °F 48.9 °F 64% 30.01 in 10.0 mi Calm Calm - N/A   Overcast
4:53 PM 61.0 °F 50.0 °F 67% 30.01 in 10.0 mi Calm Calm - N/A   Overcast
5:53 PM 59.0 °F 51.1 °F 75% 30.02 in 10.0 mi Calm Calm - N/A   Overcast
6:28 PM 55.4 °F 51.8 °F 88% 30.03 in 10.0 mi West 3.5 mph - N/A   Partly Cloudy
6:53 PM 54.0 °F 51.1 °F 90% 30.02 in 10.0 mi Calm Calm - N/A   Scattered Clouds
7:53 PM 51.8 °F 48.2 °F 88% 30.03 in 10.0 mi Calm Calm - N/A   Clear
8:53 PM 46.4 °F 46.4 °F 100% 30.04 in 8.0 mi Calm Calm - N/A   Clear
9:08 PM 46.4 °F 46.4 °F 100% 30.04 in 1.8 mi Calm Calm - N/A   Clear
9:20 PM 48.2 °F 46.4 °F 93% 30.04 in 10.0 mi Calm Calm - N/A   Clear
9:53 PM 46.0 °F 45.0 °F 96% 30.04 in 10.0 mi Calm Calm - N/A   Clear
10:53 PM 46.0 °F 44.1 °F 93% 30.05 in 10.0 mi Calm Calm - N/A   Clear
11:00 PM 44.6 °F 44.6 °F 100% 30.05 in 7.0 mi Calm Calm - N/A   Partly Cloudy
11:53 PM 45.0 °F 44.1 °F 97% 30.06 in 8.0 mi Calm Calm - N/A   Clear